DELTA 1 DEB, 10876

Orbit data source: Space-Track

DELTA 1 DEB, 10876 is space debris in SSO originally from a launch on Thu, 29 Jul 1976 UTC launched from the Air Force Western Test Range (AFWTR). Debris objects in space refer to the collection of defunct objects orbiting the Earth. Examples of debris include non-operational satellites, rocket bodies, and fragments generated from explosions, collisions, or faulty payload assembly.

Loading next visibility...
Identifier
10876, 1976-077DE
Orbit
SSO
Country
Flag of USUS
Related business
Manufacturer
Unknown
Mission
Spacecraft
Bus & Motor
Unknown
Mass
Unknown
Launch date (UTC)
1976-07-29 (50 years ago)
Launch vehicle
Unknown
Launch site
Air Force Western Test Range (AFWTR)
Object type
Payload
Rocket body
Debris
Shape & HBR
Unknown shape, 0.2 m
Radar Cross Section
Small (<0.1 m²)

Expand to show TLE details & history
Last TLE update: 1 day ago

TLE from 1 day ago
0 DELTA 1 DEB
1 10876U 76077DE  26065.00894589  .00000017  00000-0  43010-3 0  9990
2 10876 102.6187  83.3352 0101313 100.7441 287.8658 12.48784212258210
Epoch: 2026-03-06T00:12Z
TLE epoch observation values (Epoch: 2026-03-06T00:12:52.924Z)
Latitude
26.81979°
Longitude
-90.10305°
Altitude
1,448.861 km
Speed
7.151 km/s
True Right ascension
05h 07m 28s
True Declination
26° 41' 38"
Sunlit
Object was in daylight at epoch
Visualization orbit readout
Latitude
Unknown
Longitude
Unknown
Altitude
Unknown
Speed
Unknown
Apparent Right ascension
Unknown
Apparent Declination
Unknown
Sunlit
N/A
Visualization observer readout
Local Sidereal Time
07:23:00
Azimuth
Unknown
Elevation
Unknown
Doppler factor
Unknown
Orbital elements
Apogee altitude
1,546.668 km
Perigee altitude
1,387.702 km
Semi-major axis
7,845.322 km
Eccentricity
0.01013
Inclination
102.6187°
RAAN
83.3352°
Arg. of periapsis
100.7441°
True anomaly
286.75658°
Mean anomaly
287.8658°
Eccentric anomaly
287.31161°
Mean motion
3.1234 °/min
Orbital period
115.26 mins
BSTAR
0.0004301
Loading maneuver chart data...
Computing Atmospheric mass density...
Loading historical data...
Loading historical data...
Loading historical data...
Loading historical data...
Loading historical data...
Loading historical data...
Loading historical data...

Documentation

Showing up to 5 results
|